SARSAT 7 (NOAA 15) 1 25338U 98030A 12039.23369788 -.00000010 00000-0 14310-4 0 1337 2 25338 98.6788 27.4432 0011377 123.6993 236.5273 14.25027141714347 GOES 11 1 26352U 00022A 12038.65023707 -.00000213 00000-0 00000+0 0 6809 2 26352 0.9920 137.7843 0001335 343.9248 238.2826 0.99045361 43081 SARSAT 8 (NOAA 16) 1 26536U 00055A 12039.21625436 .00000215 00000-0 14077-3 0 6173 2 26536 99.1135 79.2290 0011310 90.3583 269.8871 14.12704278586685 GPS BIIR-07 (DASS) 1 26690U 01004A 12038.67030627 .00000062 00000-0 10000-3 0 3584 2 26690 53.3275 239.5978 0129680 234.9598 123.8542 2.00564094 80798 GOES 12 1 26871U 01031A 12039.21093595 -.00000287 00000-0 10000-3 0 4467 2 26871 1.9662 74.4367 0002016 288.4899 150.6546 1.00282733 38697 SARSAT 9 (NOAA 17) 1 27453U 02032A 12039.49208923 .00000185 00000-0 97776-4 0 5901 2 27453 98.3527 72.9970 0011882 172.4194 187.7192 14.24391594500292 MSG-1 1 27509U 02040B 12038.87897059 .00000063 00000-0 00000+0 0 8498 2 27509 1.0885 57.0442 0000273 313.7940 92.5750 1.00280430 34685 GPS BIIR-08 (DASS) 1 27663U 03005A 12039.04161653 .00000009 00000-0 10000-3 0 7804 2 27663 56.1122 61.2399 0064115 353.2488 6.7292 2.00572297 66151 INSAT 3A 1 27714U 03013A 12039.67597904 -.00000260 00000-0 10000-3 0 9612 2 27714 0.0735 257.7929 0006871 48.5424 168.6475 1.00269527 32394 GPS BIIR-11 (DASS) 1 28190U 04009A 12039.16563938 .00000016 00000-0 10000-3 0 2432 2 28190 54.9931 123.9473 0078073 6.7199 353.4264 2.00555698 57828 GPS BIIR-12 (DASS) 1 28361U 04023A 12038.95417584 -.00000022 00000-0 10000-3 0 592 2 28361 55.0891 299.6922 0075698 188.3889 171.5537 2.00562723 55904 GPS BIIR-13 (DASS) 1 28474U 04045A 12038.44785003 .00000029 00000-0 10000-3 0 9460 2 28474 53.7893 177.9794 0108987 196.0343 163.5749 2.00567681 53250 SARSAT 10 (NOAA 18) 1 28654U 05018A 12039.49849848 .00000431 00000-0 26176-3 0 677 2 28654 99.0297 356.6222 0014585 157.0599 203.1219 14.11603284346267 GPS IIR-14M (DASS) 1 28874U 05038A 12039.29756396 .00000018 00000-0 10000-3 0 2094 2 28874 55.1420 120.8852 0072460 226.3344 133.1101 2.00568911 46694 MSG-2 1 28912U 05049B 12039.92683800 -.00000002 00000-0 00000+0 0 242 2 28912 0.3667 0.5418 0000170 64.4180 47.6002 1.00281720 22548 GOES 13 1 29155U 06018A 12039.37064463 -.00000253 00000-0 10000-3 0 9428 2 29155 0.4183 80.7629 0001905 317.1510 158.8124 1.00269057 20949 SARSAT 11 (METOP-A) 1 29499U 06044A 12039.75304731 .00000091 00000-0 61793-4 0 6506 2 29499 98.7193 100.7167 0002072 69.9582 290.1808 14.21477300275331 GPS IIR-16M (DASS) 1 29601U 06052A 12039.35355678 .00000007 00000-0 10000-3 0 6233 2 29601 56.0613 60.1934 0038605 352.7017 7.3071 2.00574888 38305 GPS IIR-17M (DASS) 1 32260U 07047A 12038.67507675 -.00000020 00000-0 00000+0 0 3286 2 32260 54.2496 297.7511 0042702 357.9333 2.1152 2.00553905 31683 GPS IIR-18M (DASS) 1 32384U 07062A 12038.48762087 .00000012 00000-0 10000-3 0 3655 2 32384 55.1679 121.4042 0023583 289.5786 70.2163 2.00566596 30400 SARSAT 12 (NOAA 19) 1 33591U 09005A 12039.47733520 .00000048 00000-0 50657-4 0 2555 2 33591 98.8529 340.9554 0014632 30.8020 329.4006 14.11289266154715 GOES 14 1 35491U 09033A 12039.18146576 -.00000089 00000-0 00000+0 0 3227 2 35491 0.0894 247.6662 0003236 191.8656 18.0029 1.00271848 9615 COSPAS C11 (STERKH 1) 1 35636U 09039B 12039.55466046 .00000091 00000-0 61640-4 0 2786 2 35636 82.9519 40.2616 0021174 126.2584 234.0541 13.89516632129477 COSPAS C12 (STERKH 2) 1 35866U 09049B 12039.70269306 .00000039 00000-0 37259-4 0 1475 2 35866 98.6723 97.0844 0004112 67.2013 292.9603 14.22436575124247 GOES 15 1 36411U 10008A 12039.18183238 .00000086 00000-0 00000+0 0 9312 2 36411 0.0285 269.8755 0000666 324.7201 193.4948 1.00263378 7118 ELEKTRO-L 1 1 37344U 11001A 12039.59479947 -.00000100 00000-0 10000-3 0 2701 2 37344 0.0504 111.0909 0001245 334.9382 342.2226 1.00271667 3911 GLONASS-K 1 1 37372U 11009A 12039.40407021 .00000028 00000-0 10000-3 0 2858 2 37372 64.7960 130.7520 0005540 235.0659 77.9758 2.13109704 7375